DW4362 Weather Reports


time (UTC)temp
F
wind
direction
speed
knots
gust
knots
rain 1hr
in
rain 24hr
in
rain mn
in
humidity
%
barometer
mb
20240723010045 81 156 0.0 1.7 0.00 1.28 1.26 91 1016.4
20240723004545 81 187 0.0 0.0 0.00 1.28 1.26 88 1016.3
20240723003046 82 187 0.0 1.7 0.00 1.28 1.26 87 1016.1
20240723001545 83 142 0.0 2.6 0.00 1.28 1.26 86 1015.8
20240722234544 83 178 1.7 4.3 0.00 1.28 1.26 84 1015.4
20240722233044 84 157 2.6 7.0 0.00 1.28 1.26 83 1015.2
20240722231544 85 127 0.0 2.6 0.00 1.28 1.26 84 1015.1
20240722230045 85 153 1.7 7.0 0.00 1.28 1.26 83 1014.9
20240722224544 86 191 1.7 7.0 0.00 1.28 1.26 81 1014.9
20240722223044 86 226 0.0 5.2 0.00 1.28 1.26 80 1014.8
20240722221544 87 220 4.3 7.8 0.00 1.28 1.26 77 1014.7
20240722220044 88 140 2.6 7.0 0.00 1.28 1.26 76 1014.5
20240722214544 88 229 0.0 7.0 0.00 1.28 1.26 78 1014.7
20240722211543 88 189 1.7 5.2 0.00 1.28 1.26 77 1014.8
20240722210044 86 165 0.0 4.3 0.00 1.28 1.26 80 1015.1
20240722204543 84 194 0.0 5.2 0.02 1.28 1.26 81 1015.6
20240722201542 79 221 0.0 5.2 0.21 1.28 1.26 91 1016.1
20240722200042 80 143 1.7 4.3 0.22 1.28 1.26 94 1016.5
20240722194542 79 45 0.0 1.7 0.20 1.26 1.24 94 1016.5
20240722193042 80 46 0.0 2.6 0.07 1.13 1.11 92 1016.5
20240722191541 83 153 0.0 1.7 0.01 1.07 1.05 85 1016.8
20240722190041 86 153 1.7 4.3 0.00 1.06 1.04 79 1016.7
20240722184541 85 320 0.0 2.6 0.00 1.06 1.04 82 1016.8
20240722183041 82 167 0.0 2.6 0.00 1.06 1.04 91 1017.2
20240722181540 79 113 0.0 1.7 0.01 1.06 1.04 96 1017.0
20240722180040 77 343 0.0 1.7 0.01 1.06 1.04 98 1016.9
20240722174540 76 343 0.0 1.7 0.01 1.06 1.04 97 1017.3
20240722173040 76 360 0.0 1.7 0.36 1.07 1.04 97 1017.5
20240722170039 75 4 0.0 1.7 1.03 1.08 1.03 96 1017.5
20240722164539 75 349 0.0 4.3 1.03 1.12 1.03 95 1017.7
20240722163039 78 44 0.0 5.2 0.68 0.80 0.68 89 1017.7
20240722160039 88 281 0.0 7.0 0.00 0.16 0.00 70 1017.7
20240722154539 89 168 2.6 5.2 0.00 0.18 0.00 74 1017.5
20240722144538 84 195 0.0 2.6 0.00 0.19 0.00 87 1017.7
20240722143038 83 202 0.0 2.6 0.00 0.19 0.00 89 1017.7
20240722140038 80 156 0.0 1.7 0.00 0.19 0.00 96 1017.7
20240722131537 77 160 0.0 0.0 0.00 0.19 0.00 99 1017.0
20240722130037 76 160 0.0 0.0 0.00 0.19 0.00 99 1016.7
20240722124537 75 160 0.0 0.0 0.00 0.19 0.00 99 1016.8
20240722123036 75 160 0.0 0.0 0.00 0.19 0.00 99 1016.6
20240722121536 75 162 0.0 0.0 0.00 0.19 0.00 99 1016.5
20240722120036 74 162 0.0 0.0 0.00 0.19 0.00 99 1016.2
20240722114537 74 162 0.0 0.0 0.00 0.19 0.00 99 1016.2
20240722113035 73 162 0.0 0.0 0.00 0.19 0.00 99 1016.0
20240722111535 73 162 0.0 0.0 0.00 0.19 0.00 99 1016.0
20240722110035 73 162 0.0 0.0 0.00 0.19 0.00 99 1016.0
20240722104534 73 162 0.0 0.0 0.00 0.19 0.00 99 1016.0
20240722101534 73 162 0.0 0.0 0.00 0.19 0.00 99 1015.8
20240722100034 73 162 0.0 0.0 0.00 0.19 0.00 99 1015.7
20240722094533 73 162 0.0 0.0 0.00 0.19 0.00 99 1015.7
20240722093032 73 162 0.0 0.0 0.00 0.19 0.00 99 1015.8
20240722091532 73 162 0.0 0.0 0.00 0.19 0.00 99 1015.7
20240722090032 73 162 0.0 0.0 0.00 0.19 0.00 99 1015.7
20240722084532 73 162 0.0 0.0 0.00 0.19 0.00 98 1015.6
20240722083031 74 162 0.0 0.0 0.00 0.19 0.00 98 1015.7
20240722081531 74 162 0.0 0.0 0.00 0.19 0.00 98 1015.8
20240722080031 74 162 0.0 0.0 0.00 0.19 0.00 98 1015.8
20240722074530 74 162 0.0 0.0 0.00 0.19 0.00 98 1015.9
20240722071530 74 162 0.0 0.0 0.00 0.19 0.00 98 1016.1
20240722070031 75 162 0.0 0.0 0.00 0.19 0.00 98 1016.3
20240722064529 75 162 0.0 0.0 0.00 0.19 0.00 98 1016.4
20240722063028 75 162 0.0 0.0 0.00 0.19 0.00 98 1016.9
20240722061529 75 162 0.0 0.0 0.00 0.19 0.00 98 1017.1
20240722060029 75 162 0.0 0.0 0.00 0.19 0.00 98 1017.1
20240722054528 75 162 0.0 0.0 0.00 0.19 0.00 98 1017.2
20240722050028 75 162 0.0 0.0 0.02 0.19 0.00 98 1017.3
20240722044527 76 162 0.0 0.0 0.02 0.19 0.19 98 1017.3
20240722043026 76 162 0.0 0.0 0.01 0.18 0.18 98 1017.4